Temp
6 13 14 14 14 14 14 14 14 14 16 13 13 14 14 13 13 13 13 13 13 13 13 13 13 13 12 12 12 12 12 12 12 11 13 13 14 13 13 14 13 13 13
4 8 13 13 13 13 14 13 13 16 15 13 12 12 13 13 14 13 13 13 13 13 13 13 13 13 12 12 11 11 11 12 12 11 11 12 12 12 12 11 11 11 12
3 5 7 10 12 13 13 13 13 13 14 12 12 13 13 13 13 13 12 12 12 13 13 12 13 12 12 12 11 11 11 12 12 12 11 12 11 11 11 10 11 11 10
2 2 3 4 7 10 13 13 13 13 13 12 12 13 12 12 12 12 12 12 12 12 12 12 12 12 12 12 11 11 11 11 11 12 12 11 12 10 11 9 8 8 7
0 1 1 2 4 5 9 11 12 13 13 12 12 11 11 11 11 12 12 12 12 12 12 12 12 12 12 12 11 11 11 11 11 11 11 11 10 10 10 9 7 5 4
-1 -0 0 1 1 3 2 7 4 9 9 10 10 9 9 9 10 11 11 11 11 10 10 10 11 12 11 11 11 11 11 11 11 11 11 11 10 10 10 9 7 3 3
-2 -2 -1 -0 0 1 2 1 2 0 5 4 4 5 5 6 6 9 10 10 8 7 6 6 7 7 8 10 10 11 11 11 11 11 10 10 10 10 10 8 7 5 1
-3 -3 -2 -2 -1 -0 1 1 1 -1 -1 -0 0 1 1 1 3 4 7 6 5 4 4 4 4 4 5 5 9 8 6 7 8 9 10 8 8 8 7 7 6 3 -0
-4 -4 -3 -3 -3 -2 -1 -1 -0 -1 -3 -3 -2 -2 -1 -1 0 1 2 3 1 0 1 1 2 2 2 4 5 3 1 -1 -1 2 2 3 2 3 4 5 2 1 -2
-5 -4 -4 -4 -4 -4 -3 -3 -2 -2 -3 -3 -3 -3 -3 -2 -1 -0 -0 -1 -2 -2 -2 -2 -1 -1 0 2 1 -1 -4 -5 -2 -2 -1 -0 0 0 1 2 2 1 -2
-5 -5 -5 -5 -4 -4 -4 -4 -4 -4 -4 -4 -5 -5 -4 -4 -4 -3 -2 -2 -3 -4 -4 -4 -4 -3 -2 -2 -1 -3 -5 -4 -4 -3 -4 -3 -2 -2 -1 -0 -0 -0 -2
-6 -6 -6 -5 -5 -5 -4 -4 -4 -4 -4 -4 -5 -5 -5 -6 -5 -5 -5 -4 -4 -5 -5 -5 -5 -5 -5 -5 -5 -6 -6 -6 -6 -6 -7 -7 -7 -6 -5 -3 -3 -3 -4
-6 -6 -6 -6 -6 -5 -5 -5 -4 -4 -4 -4 -4 -4 -5 -6 -6 -6 -5 -5 -6 -7 -7 -7 -7 -7 -6 -6 -5 -5 -5 -6 -7 -8 -9 -9 -8 -7 -7 -6 -6 -5 -6
-5 -5 -6 -6 -6 -5 -5 -5 -4 -4 -4 -4 -3 -4 -5 -5 -6 -6 -6 -6 -6 -6 -6 -7 -7 -7 -7 -7 -7 -7 -7 -7 -8 -8 -9 -9 -8 -8 -8 -8 -8 -8 -7
-5 -5 -5 -6 -6 -6 -6 -5 -5 -5 -5 -4 -5 -4 -4 -5 -6 -6 -5 -6 -6 -7 -7 -8 -8 -8 -9 -9 -9 -9 -9 -8 -9 -9 -9 -9 -9 -9 -9 -9 -9 -9 -9
-4 -5 -6 -6 -6 -6 -6 -6 -7 -6 -6 -6 -6 -6 -6 -6 -7 -7 -7 -6 -6 -6 -7 -8 -8 -9 -9 -9 -10 -10 -10 -10 -10 -10 -10 -10 -10 -10 -10 -10 -10 -9 -9
-6 -6 -6 -7 -7 -7 -7 -7 -6 -8 -8 -8 -7 -7 -7 -7 -8 -8 -9 -8 -8 -8 -9 -9 -9 -9 -10 -10 -11 -11 -11 -12 -11 -11 -11 -11 -11 -11 -10 -10 -10 -10 -11
-7 -7 -8 -8 -8 -8 -8 -8 -8 -8 -8 -9 -11 -10 -9 -9 -9 -9 -9 -8 -9 -10 -10 -10 -10 -11 -11 -12 -12 -12 -13 -13 -13 -12 -12 -12 -11 -11 -11 -11 -11 -11 -10
-7 -8 -8 -8 -8 -9 -9 -9 -9 -9 -9 -10 -10 -10 -10 -11 -10 -9 -9 -10 -10 -11 -11 -12 -12 -12 -13 -13 -14 -14 -13 -13 -13 -13 -13 -13 -12 -12 -12 -12 -13 -13 -12
-8 -8 -8 -8 -9 -9 -9 -9 -9 -10 -10 -11 -11 -11 -11 -10 -11 -12 -12 -12 -12 -12 -12 -13 -13 -14 -14 -14 -14 -14 -15 -15 -15 -15 -15 -15 -14 -13 -13 -13 -13 -13 -13
-9 -9 -8 -9 -9 -9 -10 -10 -10 -10 -11 -11 -12 -12 -12 -12 -13 -13 -13 -13 -13 -14 -14 -14 -14 -15 -15 -15 -15 -15 -15 -16 -16 -16 -16 -15 -15 -15 -15 -14 -14 -14 -14
-10 -9 -9 -9 -10 -10 -10 -10 -10 -11 -11 -12 -13 -13 -13 -14 -14 -14 -15 -15 -15 -15 -15 -15 -16 -16 -16 -16 -16 -16 -16 -16 -16 -17 -17 -16 -16 -16 -16 -16 -16 -16 -15
-11 -11 -10 -10 -10 -11 -11 -11 -11 -11 -12 -12 -13 -13 -14 -14 -15 -15 -16 -16 -16 -16 -16 -16 -16 -16 -16 -16 -16 -17 -17 -17 -16 -16 -17 -17 -17 -17 -16 -16 -16 -16 -16
-12 -12 -12 -12 -12 -12 -12 -12 -12 -12 -13 -13 -13 -14 -14 -15 -15 -16 -16 -16 -17 -17 -17 -17 -17 -17 -18 -18 -18 -18 -18 -18 -18 -17 -17 -18 -18 -18 -18 -17 -17 -18 -18
-14 -13 -13 -14 -14 -13 -13 -13 -13 -13 -13 -13 -14 -14 -14 -15 -15 -15 -16 -16 -17 -17 -18 -18 -18 -18 -18 -19 -19 -19 -19 -19 -19 -18 -18 -18 -18 -18 -19 -19 -18 -18 -19
-14 -14 -14 -14 -14 -14 -14 -14 -14 -14 -14 -14 -14 -15 -15 -15 -16 -16 -16 -16 -17 -17 -18 -18 -18 -19 -19 -19 -19 -19 -19 -19 -20 -19 -19 -19 -19 -20 -20 -20 -19 -19 -19
Height
660 655 656 658 660 663 666 670 675 679 678 698 704 704 708 713 717 721 725 727 729 732 735 738 740 743 744 747 750 754 759 761 763 772 776 779 783 788 794 799 803 806 808
667 658 656 657 661 663 665 671 672 671 678 700 703 704 709 710 713 717 720 722 725 727 730 732 733 735 734 739 742 745 750 755 761 767 771 776 780 783 789 794 798 800 803
671 665 661 661 661 667 669 670 669 670 673 695 699 702 705 706 709 713 716 719 722 723 724 726 727 726 727 731 734 739 744 751 756 762 767 771 776 780 784 789 792 796 801
681 675 669 668 666 666 668 669 668 668 672 692 696 698 701 704 706 710 714 716 717 718 719 718 718 718 720 722 727 731 737 745 753 758 763 767 773 778 781 782 790 794 798
687 685 679 677 674 669 665 667 671 667 674 685 690 695 698 702 704 708 711 712 712 713 713 711 711 711 713 716 721 726 731 740 748 754 758 762 767 770 774 780 788 793 797
699 691 689 682 679 675 670 665 666 669 676 683 688 692 696 700 704 706 706 707 708 709 709 709 709 710 711 714 718 723 729 735 741 746 750 756 761 764 768 774 780 789 796
708 701 698 693 689 686 681 675 675 678 677 685 689 694 696 698 703 704 704 705 706 708 709 709 709 709 711 713 717 719 725 732 737 741 745 751 755 758 763 768 773 778 784
719 713 707 702 697 695 690 691 693 691 690 690 693 698 699 701 702 707 705 706 707 710 711 711 712 713 715 716 715 720 727 729 735 737 742 746 751 755 759 762 768 774 783
727 723 718 713 708 703 698 701 695 705 700 696 700 703 704 708 708 712 711 709 711 713 715 715 717 717 719 720 720 721 728 734 738 740 742 746 751 753 758 761 768 774 784
737 733 728 722 716 714 711 710 709 708 707 709 710 710 711 713 715 719 717 715 716 718 721 723 723 723 723 724 726 730 734 742 743 747 744 751 754 758 761 764 767 771 777
747 741 736 731 728 724 720 718 716 717 714 719 720 717 718 722 725 726 723 720 723 724 729 731 732 731 729 732 733 737 742 747 748 749 754 758 759 763 763 768 772 774 774
755 750 745 741 739 735 732 731 729 729 727 724 726 727 728 735 732 734 730 728 730 731 735 740 742 739 739 739 743 746 751 754 756 758 764 764 769 772 772 773 776 779 781
761 758 755 751 748 746 744 743 742 741 742 741 737 739 746 746 744 743 738 737 738 741 745 746 746 746 748 750 751 756 757 763 763 767 773 776 780 779 784 781 785 787 788
768 765 764 761 760 758 756 755 755 754 752 752 753 755 754 753 752 750 748 748 750 749 753 753 753 755 755 758 762 764 766 769 770 775 780 783 786 787 787 789 793 796 795
775 773 770 769 768 769 768 767 765 763 762 761 762 761 762 760 761 757 755 756 757 759 758 761 762 764 767 766 769 773 775 777 779 782 785 788 790 792 793 793 796 797 799
780 778 777 776 774 774 775 774 772 772 771 769 769 769 766 767 767 765 761 762 763 765 765 767 769 771 773 775 774 778 782 784 787 788 791 793 795 796 797 798 799 802 804
786 784 783 782 781 780 781 780 779 780 778 777 778 776 776 775 772 770 769 767 768 768 772 777 778 779 780 780 781 782 785 789 791 792 795 797 799 800 800 800 801 804 808
793 792 790 788 787 785 784 784 784 784 783 784 781 781 781 779 776 774 773 773 773 776 780 782 784 787 787 787 786 787 789 790 793 795 797 800 800 802 803 804 807 808 809
798 797 796 795 793 791 790 789 789 788 787 786 786 785 782 782 779 778 778 781 781 784 786 787 789 790 791 790 791 791 792 794 795 797 798 801 802 804 807 809 808 809 811
802 801 800 799 797 797 795 794 793 793 793 792 792 790 788 788 786 787 787 788 788 791 791 792 793 793 792 794 794 795 797 799 800 801 801 803 805 807 808 810 811 812 813
807 807 806 805 803 801 799 798 798 797 797 797 796 795 793 792 794 796 795 795 795 796 796 797 797 795 796 796 796 798 799 800 802 804 804 805 807 808 809 811 812 813 815
810 808 806 804 803 802 801 801 800 801 801 801 801 800 799 799 799 798 798 799 799 799 799 799 798 798 797 798 799 800 800 802 803 804 806 806 807 808 810 811 812 814 816
812 810 808 807 806 805 804 804 804 804 804 804 804 804 803 803 802 802 802 801 801 801 800 800 799 798 799 799 800 801 802 802 803 805 806 807 808 809 811 812 813 815 816
814 812 811 810 808 807 806 806 806 806 806 806 806 806 805 805 804 803 803 803 803 802 801 800 800 800 800 801 802 803 803 803 803 804 805 806 808 809 811 813 814 814 814
816 814 813 811 810 809 808 807 806 806 806 806 806 805 805 804 804 804 803 803 803 802 802 802 802 801 802 802 803 804 804 804 804 805 806 807 808 809 810 812 812 813 813
817 816 815 813 812 811 809 808 807 806 806 805 805 804 804 804 804 803 803 803 803 803 802 802 802 803 803 803 804 804 805 806 806 806 806 807 808 809 810 811 811 813 813
Wind_Speed
31 5 12 17 22 22 21 21 24 23 13 19 25 26 25 26 23 24 25 24 23 22 23 25 29 30 30 30 30 27 25 20 6 11 16 23 19 26 27 29 22 19 18
28 25 2 8 13 15 20 21 28 22 17 24 20 22 23 25 22 22 22 21 21 21 22 24 31 33 33 32 32 31 29 27 18 12 14 12 13 24 21 16 14 16 15
30 27 21 13 1 12 21 23 25 26 24 21 23 22 21 19 18 19 20 18 18 20 21 25 26 28 30 30 32 32 31 30 23 14 11 15 9 16 19 21 19 17 13
29 26 25 22 14 5 12 20 26 28 27 21 19 17 14 14 14 14 15 16 15 17 20 20 26 29 34 31 32 32 30 27 23 19 18 18 18 18 19 21 15 15 13
27 27 25 20 17 15 11 10 14 27 28 24 21 18 16 13 13 13 13 12 12 14 12 13 18 25 34 37 32 30 31 28 24 21 18 16 15 17 19 18 15 21 15
29 30 26 26 24 21 22 16 16 25 27 25 22 18 13 7 8 11 10 9 10 8 6 5 8 19 23 32 30 30 32 30 26 21 17 17 17 19 23 24 23 12 6
30 30 29 24 24 26 25 30 23 18 28 24 21 16 14 8 2 4 10 10 9 8 8 8 9 11 20 27 32 35 33 30 28 26 23 20 21 23 25 24 23 17 10
28 29 31 28 27 26 32 28 26 25 22 27 24 19 18 15 10 7 13 14 15 13 11 12 12 13 13 20 27 23 17 14 13 21 24 20 16 21 23 25 25 22 20
28 29 29 29 29 29 32 29 32 25 26 30 29 27 25 19 13 12 16 20 22 22 18 16 14 15 15 16 22 29 26 23 21 18 19 18 16 16 17 20 25 24 7
27 26 28 29 30 31 32 29 28 31 30 29 32 32 30 26 17 14 18 23 27 28 27 25 20 18 16 18 23 26 30 25 27 26 28 24 21 19 16 16 23 18 15
25 26 28 28 28 29 31 31 32 30 31 30 30 35 37 32 26 20 20 24 24 26 26 26 27 23 23 23 25 28 28 28 30 31 31 29 28 25 24 17 13 12 15
24 27 28 29 27 27 29 28 27 25 27 26 27 30 35 32 30 28 28 29 27 29 28 28 28 30 30 31 31 29 28 28 29 31 29 30 31 31 31 29 25 23 21
23 25 26 28 29 27 26 24 23 23 21 21 23 22 19 21 27 29 31 33 33 32 29 27 27 30 32 32 29 28 28 26 28 27 24 23 24 27 26 29 27 25 25
21 21 21 25 26 26 25 24 21 20 20 19 19 19 18 18 18 22 24 27 28 30 29 31 32 32 33 31 28 27 26 26 28 25 22 18 16 15 15 13 14 14 18
18 18 19 19 20 23 29 26 24 27 20 17 18 17 17 20 19 20 20 20 21 22 22 21 21 22 24 25 27 25 23 22 19 16 15 14 12 12 13 12 12 13 13
17 17 16 15 15 15 16 20 30 29 27 25 23 21 23 20 18 18 18 16 15 16 17 17 18 17 17 17 19 18 16 16 14 14 13 12 12 12 12 12 12 13 12
17 16 15 14 14 13 12 12 13 16 24 26 24 21 19 15 16 17 17 16 15 16 18 15 15 15 15 15 15 15 15 13 13 13 12 11 11 11 11 12 12 11 11
17 17 14 14 13 13 12 12 11 11 12 13 18 19 17 15 14 13 13 15 18 18 16 15 14 12 12 13 13 13 12 12 12 12 11 10 10 10 11 11 10 9 9
15 13 12 12 13 12 11 10 10 11 11 11 10 14 15 15 15 14 14 14 14 14 13 13 12 12 12 12 13 13 13 13 12 11 11 10 9 9 10 9 10 10 8
13 12 10 8 9 9 8 8 8 9 10 11 11 11 9 9 13 14 13 12 12 11 11 11 11 11 11 11 11 11 10 9 9 9 10 9 8 8 9 8 7 7 7
10 9 8 6 7 8 8 8 7 7 8 9 10 12 11 10 10 9 9 10 10 9 8 8 9 9 8 8 8 7 7 7 7 7 7 8 7 8 7 7 7 6 5
9 9 8 8 7 7 7 7 7 6 7 7 7 8 9 9 8 8 8 7 7 7 6 6 7 7 7 7 7 7 7 7 7 7 7 7 6 6 6 6 6 5 4
10 9 8 8 7 5 4 5 5 5 5 5 5 5 6 7 7 6 6 5 5 5 5 6 6 7 7 7 6 6 6 6 6 6 6 6 6 6 6 5 5 4 3
10 10 8 7 7 6 4 3 2 2 3 3 3 3 4 4 4 5 5 5 5 6 6 6 6 6 6 7 8 7 7 6 5 5 6 6 5 5 4 4 3 3 2
11 10 9 9 8 7 6 4 2 1 1 1 1 1 1 1 1 1 2 3 3 3 3 4 5 5 5 5 5 6 5 6 5 5 5 5 5 5 4 3 2 2 1
9 9 8 8 8 8 7 7 5 4 3 3 3 3 4 4 3 3 3 2 1 1 0 1 3 2 2 2 3 3 3 4 5 5 4 3 3 3 3 3 3 2 2
Wind_Direction
347 313 194 187 189 186 190 193 184 168 151 220 207 199 201 206 210 213 211 213 215 224 227 227 223 225 217 211 207 202 193 184 154 184 194 208 207 214 218 222 223 224 231
352 15 86 202 181 169 189 183 187 178 179 204 201 197 199 197 206 212 215 219 223 227 235 237 230 226 214 207 196 190 189 189 175 157 180 178 201 205 201 184 166 186 204
4 17 27 28 57 193 185 184 172 167 163 191 188 183 190 190 203 217 221 228 233 239 245 243 240 220 207 203 194 189 187 186 182 173 160 180 169 167 154 160 165 164 164
4 15 22 15 13 351 185 180 168 163 157 178 177 172 181 192 197 207 218 226 238 243 253 256 254 240 220 200 193 184 182 185 192 188 177 164 164 159 155 152 148 162 165
12 15 18 20 23 42 83 124 155 156 160 165 161 160 164 176 190 201 212 224 238 240 244 240 231 217 206 197 188 182 179 183 187 187 172 171 175 166 171 171 159 173 161
14 20 14 26 35 42 51 98 59 137 143 143 142 142 137 141 208 214 203 199 193 191 184 202 222 212 200 193 185 179 182 181 182 178 172 180 188 179 179 178 169 154 151
21 21 19 22 37 51 54 61 65 38 122 118 112 113 106 99 89 203 195 165 153 141 131 133 127 149 154 173 186 180 180 187 188 184 180 186 189 200 200 187 184 166 144
23 24 26 24 36 46 65 60 55 44 65 88 89 83 83 70 83 125 149 134 121 111 107 104 111 125 144 144 149 138 122 130 161 181 191 186 197 193 195 194 177 152 134
22 22 25 33 35 41 52 60 69 67 46 64 71 70 71 68 81 109 120 116 104 93 88 91 102 107 120 139 133 126 116 103 103 125 133 143 147 152 165 168 150 137 105
19 20 31 36 41 44 49 54 65 72 65 60 64 65 65 64 70 93 108 104 91 87 84 79 85 99 111 122 124 121 103 104 108 104 103 108 115 118 123 151 155 145 126
28 34 38 41 46 49 56 56 61 60 65 61 61 63 62 63 61 73 96 97 89 83 76 73 77 87 100 107 114 113 106 113 106 104 100 98 99 100 100 107 123 139 129
39 39 41 43 44 50 57 56 58 58 61 58 60 60 64 60 65 66 78 88 89 86 85 82 81 87 92 96 97 101 106 107 103 98 89 85 87 87 91 92 96 95 101
42 44 44 47 46 46 48 49 51 54 58 58 59 63 60 64 74 80 87 92 89 83 84 88 89 87 90 90 101 104 106 100 93 85 83 85 92 96 93 93 91 94 93
41 45 49 51 49 47 48 47 53 54 57 60 66 68 67 64 66 78 83 87 94 98 98 93 92 93 95 94 91 92 97 98 94 92 92 95 97 87 84 81 85 86 83
42 42 45 48 57 58 56 53 55 55 58 63 62 68 71 69 67 79 86 89 96 102 99 91 85 83 82 85 86 85 86 87 80 89 94 95 90 87 79 86 85 84 90
38 38 41 46 50 55 59 62 63 66 63 65 68 71 73 73 70 72 80 91 104 106 90 89 89 88 85 85 86 83 78 78 81 87 88 91 93 92 88 81 85 87 89
38 38 40 46 52 57 58 63 70 63 69 65 62 65 67 72 72 73 78 87 90 96 86 82 84 86 92 93 93 93 92 86 96 90 90 90 95 94 92 85 80 81 79
45 44 46 47 44 49 53 56 64 61 54 44 50 60 57 60 64 69 81 87 76 74 84 90 89 89 88 90 94 96 97 96 94 94 92 90 86 86 85 85 84 86 85
40 39 45 49 51 51 50 53 51 50 49 46 41 43 48 51 60 70 77 75 81 83 85 87 92 94 92 92 92 94 96 97 99 100 96 91 89 97 95 91 88 85 83
37 37 39 43 45 43 45 52 56 55 53 49 43 35 33 51 54 54 59 70 78 82 86 91 92 94 96 97 98 98 99 95 95 96 99 97 95 98 100 99 94 89 79
27 32 39 49 52 53 56 57 62 65 64 60 54 50 53 67 69 67 68 70 77 82 90 99 99 99 98 101 99 99 103 107 108 110 110 114 109 108 103 101 99 93 88
25 25 27 29 32 41 49 57 65 70 72 73 70 65 64 71 73 73 74 76 77 83 91 101 102 102 104 106 106 108 111 114 121 126 126 118 107 107 109 108 106 106 106
25 25 26 26 25 25 37 50 62 71 76 73 71 71 66 74 79 83 86 88 93 101 106 106 111 118 120 119 116 112 109 118 134 142 137 125 118 120 117 115 115 115 113
27 26 23 18 21 23 25 37 55 77 76 75 74 77 82 86 85 83 81 93 97 99 99 101 105 114 124 124 120 114 104 102 113 135 148 143 129 128 129 129 126 120 109
23 23 25 27 25 17 6 0 353 331 333 339 350 355 346 9 69 72 74 83 92 87 93 105 103 101 112 122 121 116 96 85 88 114 135 152 160 161 159 140 134 105 100
23 24 22 19 16 11 6 1 354 343 322 294 279 285 279 275 268 278 275 264 263 285 297 195 175 148 134 143 149 130 105 101 87 78 102 126 157 179 181 182 182 169 168